Wind_Speed
14 13 19 8 28 37 36 35 34 34 33 33 33 34 33 35 36 37 35 41 39 37 34 33 30 29 29 28 26 25 24 23 21 20 20 19 16 15 15 14 12 11 11
15 16 18 20 18 16 39 38 39 38 37 37 33 33 35 36 38 36 37 41 40 39 36 33 31 29 30 29 27 26 26 25 23 22 20 19 18 15 14 13 12 12 11
22 20 19 22 22 28 15 37 35 38 35 37 36 34 36 38 40 40 39 42 43 41 39 38 36 33 31 30 30 29 27 26 25 24 22 21 18 17 16 14 13 12 11
27 27 27 26 27 26 25 20 36 35 32 34 34 34 37 39 41 40 39 41 49 43 41 39 38 38 35 32 31 30 29 28 27 26 25 23 21 19 17 16 15 14 12
31 30 30 28 28 30 29 35 26 32 33 33 34 35 37 39 41 40 38 43 41 41 39 43 41 40 38 37 33 32 33 29 27 28 27 26 23 21 20 18 17 15 14
25 28 30 30 26 30 30 28 35 37 32 35 34 35 36 37 39 41 41 39 44 42 37 40 44 45 42 41 38 36 35 34 30 30 28 27 26 24 22 21 19 17 15
24 25 26 26 28 27 28 31 30 31 38 36 28 24 31 36 38 41 39 39 39 47 44 44 48 43 46 44 43 40 38 37 36 34 31 29 27 26 25 23 22 19 16
24 26 27 27 27 28 28 30 29 28 30 39 23 23 6 11 29 34 44 48 44 41 43 46 48 48 45 49 46 45 41 38 38 37 33 30 29 27 25 24 21 20 19
21 22 23 26 28 29 31 30 31 29 28 33 34 13 4 9 3 17 33 38 48 47 47 43 49 50 46 48 49 49 46 42 40 38 36 35 32 29 26 23 23 21 18
24 25 27 29 29 29 31 31 32 34 27 27 26 35 28 17 6 3 13 32 38 48 52 46 42 44 54 50 49 53 50 45 44 42 39 36 33 31 28 25 22 20 18
24 25 27 28 29 29 32 33 31 32 32 30 33 28 25 20 24 5 4 10 31 41 50 49 43 47 45 49 52 54 53 49 49 48 45 42 37 33 30 28 24 21 18
25 25 26 27 30 32 32 30 26 34 34 34 31 36 24 14 14 9 4 11 18 23 43 48 49 45 46 47 52 58 58 53 51 51 49 45 39 34 31 28 24 20 18
24 25 26 28 28 32 33 32 32 30 26 27 29 31 33 28 32 34 22 3 6 8 20 41 45 48 48 45 40 54 60 57 54 55 52 49 41 35 31 26 23 20 17
28 26 27 30 31 30 33 33 33 35 31 30 30 31 29 39 25 29 31 9 1 2 10 13 46 46 46 47 41 45 59 60 59 56 52 51 41 36 31 26 23 20 17
31 30 31 32 32 31 33 27 24 25 33 32 30 31 34 36 32 29 27 26 17 7 11 15 16 46 47 45 46 43 47 59 62 58 56 48 42 36 29 25 23 21 18
32 35 35 32 31 31 31 30 31 32 28 29 27 28 32 35 34 28 29 29 28 22 10 19 23 24 45 41 41 43 44 51 60 58 51 45 40 34 28 25 23 20 17
31 32 31 31 31 31 31 31 31 25 22 26 31 34 32 33 29 38 31 28 26 19 8 5 18 21 33 40 38 42 47 50 48 45 43 39 34 30 29 27 23 18 16
32 31 30 31 30 29 28 28 27 25 26 26 28 24 32 32 31 34 34 30 27 24 11 6 13 17 22 33 35 38 37 41 38 38 35 34 31 30 27 25 21 17 15
31 28 26 30 30 30 30 28 22 20 21 24 27 31 28 34 31 30 30 31 30 27 23 17 10 20 21 34 35 32 32 32 36 29 28 28 28 26 23 21 19 17 14
27 21 18 23 29 30 31 31 29 29 28 26 28 28 29 35 34 37 34 33 33 27 22 22 19 17 21 25 29 31 28 31 31 27 27 25 22 22 20 19 18 16 13
24 18 12 12 22 28 29 28 28 31 30 31 34 30 31 35 39 43 40 34 33 25 21 20 16 17 19 29 29 25 24 29 26 27 27 24 23 22 19 16 15 15 13
25 22 20 15 5 16 27 29 27 27 28 25 20 24 29 36 36 36 35 35 38 34 22 16 12 19 23 28 24 31 31 22 6 23 26 23 21 21 21 17 17 16 13
26 25 25 24 22 16 5 13 21 18 15 17 19 22 23 24 28 29 28 27 25 25 26 29 26 23 25 31 32 29 27 22 10 22 24 17 18 18 16 16 18 16 13
24 23 25 28 26 23 21 24 26 26 26 23 20 21 25 27 28 31 30 28 22 17 15 18 24 29 28 34 32 30 29 24 18 23 22 6 16 13 17 19 18 13 13
24 24 25 28 29 28 26 26 33 32 32 30 27 26 27 28 25 28 33 32 30 23 15 14 16 20 20 30 32 33 29 26 6 6 18 8 13 13 14 16 18 19 14
19 24 30 31 31 33 32 30 32 32 32 30 31 31 28 28 25 29 34 36 29 23 32 34 32 28 23 22 20 24 36 25 14 5 18 10 13 9 5 12 15 15 14
Wind_Direction
336 312 298 296 254 243 232 226 223 221 218 215 215 215 215 216 210 211 206 195 196 193 186 182 185 181 178 176 178 174 173 172 172 169 165 159 160 151 148 148 148 143 141
312 312 307 301 291 263 238 229 224 222 221 214 210 214 216 217 220 213 209 201 201 193 188 183 187 187 185 181 180 178 178 176 174 170 167 164 162 166 165 162 155 152 157
291 288 284 288 293 282 293 228 229 225 216 213 207 206 212 216 220 218 217 204 202 199 192 189 187 189 190 186 183 182 182 183 181 178 176 173 167 171 171 172 169 163 159
281 280 277 272 273 276 274 289 224 218 215 209 202 206 208 211 217 216 216 211 203 203 197 195 194 191 187 190 187 183 184 185 183 183 180 178 178 175 174 172 172 171 168
279 276 276 273 268 268 274 264 275 219 212 214 205 205 208 209 214 213 211 212 202 205 201 200 198 195 192 189 191 188 184 189 189 188 183 182 182 178 179 179 179 176 178
278 276 274 269 261 258 252 256 251 260 228 211 212 206 207 207 211 212 211 209 211 211 205 203 203 199 197 193 193 191 190 186 192 193 190 186 186 182 182 184 182 183 181
278 271 268 265 259 252 252 258 254 253 261 218 203 190 198 201 201 209 208 207 209 215 214 207 204 201 199 199 197 194 195 191 192 192 194 191 191 189 186 188 185 182 184
276 270 266 263 260 260 255 246 242 234 238 251 208 192 180 212 212 200 203 211 211 210 215 214 206 203 201 201 202 198 199 197 195 191 192 193 193 191 191 186 186 186 183
275 270 268 267 262 255 252 245 235 228 233 235 248 207 162 205 127 216 216 203 208 213 214 213 213 205 200 200 202 202 202 201 198 193 193 193 192 194 191 192 189 187 188
277 271 267 265 261 257 252 247 240 236 231 233 232 259 217 170 184 176 225 216 211 210 216 215 208 201 204 204 204 203 203 203 201 193 192 192 192 194 188 191 194 190 189
274 269 264 262 259 257 254 249 243 236 232 234 226 234 231 184 193 177 173 199 217 217 213 219 213 204 203 206 207 205 207 205 203 196 191 191 190 192 188 189 191 189 189
274 269 266 261 260 257 254 254 247 238 233 231 228 228 235 217 190 195 185 191 207 214 213 217 221 214 205 207 207 210 210 210 203 198 192 190 185 189 188 187 185 191 188
271 266 260 257 259 258 255 251 249 249 241 219 220 225 230 251 227 213 201 151 185 189 211 220 220 222 217 210 210 213 211 210 204 201 192 188 182 184 184 183 181 188 186
274 268 261 259 256 255 255 250 245 243 241 235 225 229 232 237 249 225 210 165 110 139 191 204 220 223 222 216 214 209 211 209 206 194 188 182 175 179 177 179 179 182 184
276 271 261 257 254 252 252 251 245 236 230 231 230 224 226 231 233 234 220 201 195 185 213 212 201 218 219 219 216 215 207 206 202 191 186 176 171 172 171 177 181 182 185
281 281 259 253 250 249 248 249 253 251 243 237 236 233 228 229 223 226 218 215 209 216 216 200 207 213 215 216 217 218 207 193 191 182 173 169 167 171 173 177 182 179 181
285 286 255 248 246 246 243 240 241 246 237 232 231 234 236 228 218 217 209 205 205 217 202 161 198 206 201 205 200 195 188 174 169 170 168 166 167 175 172 178 178 173 181
293 284 266 248 242 242 240 242 244 245 237 239 245 246 232 225 209 195 195 195 198 205 171 156 155 166 186 187 181 166 164 163 166 167 164 162 168 168 172 173 168 173 180
304 296 276 246 239 236 234 236 238 253 250 246 246 243 242 224 200 192 191 189 192 188 190 166 139 166 160 174 163 158 156 152 154 157 154 159 162 166 169 169 172 177 185
320 314 292 257 240 232 232 240 244 246 249 252 255 252 246 219 197 190 182 183 184 177 162 139 118 131 143 153 154 143 136 153 150 156 158 160 161 169 168 173 179 186 191
349 350 329 283 249 236 234 233 231 233 237 245 244 247 242 223 206 201 190 183 174 155 146 140 129 149 144 156 163 158 144 148 149 158 160 163 171 174 173 178 177 188 198
1 8 22 30 351 243 235 231 228 232 235 234 228 230 223 214 205 200 192 190 186 163 145 139 153 159 167 169 160 158 149 148 150 177 172 174 185 185 183 183 202 215 218
9 14 25 33 40 50 140 209 215 206 190 187 180 170 159 160 157 157 152 157 159 165 175 174 154 163 163 168 158 154 159 160 148 171 182 178 188 189 192 205 217 220 215
21 21 30 40 43 54 74 101 125 114 104 100 111 118 120 128 137 139 135 126 125 131 162 182 180 175 175 167 164 159 156 148 138 164 180 150 192 194 208 215 215 211 212
29 30 35 43 51 56 68 79 96 89 84 82 93 108 116 110 117 133 123 106 97 94 114 142 150 159 156 164 173 165 147 138 104 163 181 163 179 188 204 216 217 220 221
31 42 43 44 53 58 63 71 79 81 75 73 73 78 92 100 111 126 121 111 104 110 110 107 103 106 125 144 168 180 167 147 130 139 192 170 159 162 171 213 213 219 222
Height
778 777 776 772 775 776 779 781 783 786 789 792 795 799 803 807 807 809 812 815 818 820 825 827 833 835 839 841 845 848 851 854 857 860 862 865 868 869 870 872 873 874 876
776 773 772 772 771 767 770 773 775 778 781 785 788 794 798 802 804 805 807 812 814 817 820 823 830 834 836 837 842 845 849 851 855 857 860 862 864 868 870 871 872 874 875
772 771 770 767 766 769 765 762 768 772 774 777 780 787 791 795 799 801 802 806 810 812 815 817 821 827 833 835 837 842 845 849 852 855 857 861 862 865 868 871 872 873 875
766 765 764 763 765 763 761 762 759 762 767 770 773 778 783 787 791 794 796 799 801 804 810 813 817 821 824 831 834 836 841 845 849 851 853 856 859 862 865 867 869 871 873
757 756 755 755 755 754 750 754 757 752 756 762 765 769 774 777 782 786 789 793 794 800 803 808 812 816 820 824 830 833 835 842 845 849 849 852 856 857 861 864 866 868 869
749 748 746 747 747 746 747 747 747 750 747 750 756 759 764 768 773 777 780 786 790 795 798 803 807 810 814 818 822 826 830 833 841 844 846 848 852 853 856 859 861 864 866
740 740 739 738 738 738 738 738 739 740 744 742 747 746 752 759 762 767 772 777 781 787 793 794 799 803 806 811 815 818 823 825 832 837 842 845 848 850 850 855 857 859 862
733 732 732 732 732 731 730 731 732 735 733 739 732 739 745 754 754 755 761 766 771 777 783 787 790 794 798 802 808 811 816 820 825 830 835 839 844 846 850 850 854 855 854
726 725 724 724 724 724 722 723 724 725 726 725 732 726 732 730 747 750 752 754 760 766 772 778 779 783 787 792 798 803 808 812 817 822 828 832 837 841 844 848 849 850 852
717 716 715 715 715 714 712 713 715 715 718 716 717 722 712 708 728 745 747 747 753 755 762 765 773 770 774 783 789 791 798 803 808 813 820 825 830 835 836 842 846 847 849
709 708 707 706 705 704 703 704 705 705 706 708 709 711 709 706 712 721 736 740 745 747 751 758 761 762 766 774 780 781 789 793 800 805 809 816 821 827 829 835 840 842 844
701 699 698 696 695 694 694 695 694 696 697 698 702 701 702 701 698 707 716 727 731 738 740 747 753 755 757 766 767 771 781 788 791 797 801 808 813 821 825 830 833 839 840
691 689 689 687 685 685 685 686 687 687 687 686 690 691 692 696 695 696 702 718 723 730 733 737 742 747 751 755 758 760 767 776 782 787 791 798 806 814 819 824 827 834 837
682 679 679 679 678 676 676 676 676 678 679 679 681 682 684 688 692 691 693 705 721 726 727 726 732 737 742 748 752 757 760 763 772 775 784 790 797 807 812 818 822 827 832
673 670 669 668 668 668 667 666 666 667 670 672 673 675 679 680 683 686 687 690 696 715 718 720 724 722 731 738 742 752 755 754 762 766 776 783 791 798 804 813 817 821 825
665 660 657 657 658 659 659 660 660 659 662 663 665 668 668 671 674 676 682 686 689 692 703 711 717 715 721 731 737 746 748 750 750 760 768 776 783 789 798 807 813 815 820
655 650 646 647 648 649 650 651 652 652 653 655 658 661 660 662 658 668 674 679 684 692 695 708 711 714 720 726 733 737 739 748 752 760 766 773 780 787 794 802 808 811 817
647 641 638 637 638 640 642 643 644 645 646 648 649 651 652 654 656 657 666 670 678 686 692 701 708 713 718 725 731 733 742 743 755 761 767 767 778 785 793 799 800 806 812
639 632 629 627 628 630 633 634 635 636 638 641 642 643 644 648 648 654 658 660 671 679 683 689 698 707 715 724 731 736 741 749 754 764 767 775 778 785 791 795 797 803 807
635 626 620 618 619 621 623 626 628 630 632 635 637 638 639 639 641 646 652 659 666 673 679 688 692 704 712 724 730 734 742 754 756 764 768 774 778 785 789 791 795 799 804
633 623 616 612 612 613 615 618 620 623 625 629 630 631 634 635 636 639 644 651 656 669 676 683 688 703 710 719 725 733 743 750 757 763 767 773 779 784 786 789 793 798 801
634 625 616 610 606 605 607 611 614 616 620 622 624 626 628 630 632 637 641 645 652 660 673 680 689 694 705 714 721 727 736 748 760 764 766 773 776 781 784 787 792 796 799
639 631 622 614 610 605 603 605 610 612 614 618 622 623 626 630 632 637 645 651 657 662 667 672 682 692 702 705 712 723 733 741 750 758 765 771 775 779 783 787 791 794 796
644 638 631 623 617 615 612 610 610 613 617 621 623 626 628 631 635 638 644 654 664 666 671 679 685 688 696 702 711 721 730 739 750 757 763 770 774 777 782 786 788 792 793
651 645 638 631 627 625 621 619 616 620 623 628 631 633 635 639 643 646 650 660 663 676 682 684 689 695 698 704 713 720 731 741 755 761 764 767 771 774 778 783 784 786 788
659 653 646 641 638 634 632 630 628 628 631 637 641 646 647 646 652 655 658 661 675 683 681 688 692 701 709 711 724 726 729 738 748 759 762 765 768 772 776 777 779 783 785